HS5NMF Weather Reports


Display with metric or nautical units.
time (UTC)temp
F
wind
direction
speed
MPH
gust
MPH
rain 1hr
in
rain 24hr
in
rain mn
in
humidity
%
barometer
mb
20260508074748 86 0 0.0 0.0 0.00 0.00 0.00 82 976.0
20260508074225 85 0 0.0 0.0 0.00 0.00 0.00 83 976.0
20260508073701 86 0 0.0 0.0 0.00 0.00 0.00 78 976.0
20260508073137 85 0 0.0 0.0 0.00 0.00 0.00 80 976.0
20260508072612 86 0 0.0 0.0 0.00 0.00 0.00 77 976.0
20260508072049 86 0 0.0 0.0 0.00 0.00 0.00 75 976.0
20260508071524 86 0 0.0 0.0 0.00 0.00 0.00 76 976.0
20260508071001 86 0 0.0 0.0 0.00 0.00 0.00 74 976.0
20260508070448 87 0 0.0 0.0 0.00 0.00 0.00 70
20260508070437 87 0 0.0 0.0 0.00 0.00 0.00 70 976.0
20260508065912 87 0 0.0 0.0 0.00 0.00 0.00 71 976.0
20260508065349 87 0 0.0 0.0 0.00 0.00 0.00 70 976.0
20260508064824 87 0 0.0 0.0 0.00 0.00 0.00 69 976.0
20260508064300 86 0 0.0 0.0 0.00 0.00 0.00 70 976.0
20260508063737 87 0 0.0 0.0 0.00 0.00 0.00 69 976.0
20260508063213 85 0 0.0 0.0 0.00 0.00 0.00 71 976.0
20260508062646 86 0 0.0 0.0 0.00 0.00 0.00 70 976.0
20260508062124 86 0 0.0 0.0 0.00 0.00 0.00 70 977.0
20260508061558 86 0 0.0 0.0 0.00 0.00 0.00 71 976.0
20260508061035 87 0 0.0 0.0 0.00 0.00 0.00 68 976.0
20260508060512 89 0 0.0 0.0 0.00 0.00 0.00 62 977.0
20260508055958 88 0 0.0 0.0 0.00 0.00 0.00 65 977.0
20260508055949 88 0 0.0 0.0 0.00 0.00 0.00 65 977.0
20260508055426 87 0 0.0 0.0 0.00 0.00 0.00 66 977.0
20260508054906 89 0 0.0 0.0 0.00 0.00 0.00 64 977.0
20260508054903 89 0 0.0 0.0 0.00 0.00 0.00 64 977.0
20260508054339 88 0 0.0 0.0 0.00 0.00 0.00 65 977.0
20260508053817 88 0 0.0 0.0 0.00 0.00 0.00 67 977.0
20260508053240 89 0 0.0 0.0 0.00 0.00 0.00 65 977.0
20260508052717 90 0 0.0 0.0 0.00 0.00 0.00 64 977.0
20260508052154 91 0 0.0 0.0 0.00 0.00 0.00 63 977.0
20260508051617 96 0 0.0 0.0 0.00 0.00 0.00 58 977.0
20260508051038 96 0 0.0 0.0 0.00 0.00 0.00 55 977.0
20260508050955 96 0 0.0 0.0 0.00 0.00 0.00 55 977.0
20260508050433 97 0 0.0 0.0 0.00 0.00 0.00 54 977.0
20260508045910 97 0 0.0 0.0 0.00 0.00 0.00 54 977.0
20260508045348 98 0 0.0 0.0 0.00 0.00 0.00 54 977.0
20260508044825 98 0 0.0 0.0 0.00 0.00 0.00 54 977.0
20260508044303 98 0 0.0 0.0 0.00 0.00 0.00 53 977.0
20260508043740 98 0 0.0 0.0 0.00 0.00 0.00 53 978.0
20260508043218 98 0 0.0 0.0 0.00 0.00 0.00 54 978.0
20260508042655 98 0 0.0 0.0 0.00 0.00 0.00
20260508042133 99 0 0.0 0.0 0.00 0.00 0.00 53 978.0
20260508041609 98 0 0.0 0.0 0.00 0.00 0.00 54 978.0
20260508041046 98 0 0.0 0.0 0.00 0.00 0.00 55 978.0
20260508040523 98 0 0.0 0.0 0.00 0.00 0.00 54 978.0
20260508040000 98 0 0.0 0.0 0.00 0.00 0.00 54 978.0
20260508035438 98 0 0.0 0.0 0.00 0.00 0.00 54 978.0
20260508034913 98 0 0.0 0.0 0.00 0.00 0.00 55 979.0
20260508034350 98 0 0.0 0.0 0.00 0.00 0.00 54 979.0
20260508033827 99 0 0.0 0.0 0.00 0.00 0.00 53 979.0
20260508033307 98 0 0.0 0.0 0.00 0.00 0.00 55 979.0
20260508032742 98 0 0.0 0.0 0.00 0.00 0.00 53 979.0
20260508032219 99 0 0.0 0.0 0.00 0.00 0.00 52 979.0
20260508031656 98 0 0.0 0.0 0.00 0.00 0.00 53 979.0
20260508031133 98 0 0.0 0.0 0.00 0.00 0.00 54 979.0
20260508030610 98 0 0.0 0.0 0.00 0.00 0.00 53 979.0
20260508030047 98 0 0.0 0.0 0.00 0.00 0.00 54 979.0
20260508025527 98 0 0.0 0.0 0.00 0.00 0.00 55 979.0
20260508025002 97 0 0.0 0.0 0.00 0.00 0.00 55 979.0
20260508024439 97 0 0.0 0.0 0.00 0.00 0.00 54 979.0
20260508023915 97 0 0.0 0.0 0.00 0.00 0.00 52 979.0
20260508023353 96 0 0.0 0.0 0.00 0.00 0.00 50 979.0
20260508022829 96 0 0.0 0.0 0.00 0.00 0.00 48 979.0
20260508022307 95 0 0.0 0.0 0.00 0.00 0.00 48 979.0
20260508021745 95 0 0.0 0.0 0.00 0.00 0.00 49 979.0
20260508021220 95 0 0.0 0.0 0.00 0.00 0.00 51 979.0
20260508020656 95 0 0.0 0.0 0.00 0.00 0.00 52 979.0
20260508020133 96 0 0.0 0.0 0.00 0.00 0.00 55 979.0
20260508015610 96 0 0.0 0.0 0.00 0.00 0.00 58 979.0
20260508015047 95 0 0.0 0.0 0.00 0.00 0.00 59 979.0
20260508014524 95 0 0.0 0.0 0.00 0.00 0.00 59 979.0
20260508014001 94 0 0.0 0.0 0.00 0.00 0.00 61 979.0
20260508013438 94 0 0.0 0.0 0.00 0.00 0.00 64 979.0
20260508012914 93 0 0.0 0.0 0.00 0.00 0.00 65 979.0
20260508012350 93 0 0.0 0.0 0.00 0.00 0.00 68 979.0
20260508011824 93 0 0.0 0.0 0.00 0.00 0.00 68 979.0
20260508011300 92 0 0.0 0.0 0.00 0.00 0.00 68 979.0
20260508010737 92 0 0.0 0.0 0.00 0.00 0.00 68 979.0
20260508010211 92 0 0.0 0.0 0.00 0.00 0.00 68 978.0
20260508005649 91 0 0.0 0.0 0.00 0.00 0.00 71 978.0
20260508005124 91 0 0.0 0.0 0.00 0.00 0.00 72 978.0
20260508004601 90 0 0.0 0.0 0.00 0.00 0.00 74 978.0
20260508004037 89 0 0.0 0.0 0.00 0.00 0.00 76 978.0
20260508003512 89 0 0.0 0.0 0.00 0.00 0.00 78 978.0
20260508002948 88 0 0.0 0.0 0.00 0.00 0.00 80 978.0
20260508002423 86 0 0.0 0.0 0.00 0.00 0.00 84 978.0
20260508001859 86 0 0.0 0.0 0.00 0.00 0.00 85 978.0
20260508001335 86 0 0.0 0.0 0.00 0.00 0.00 85 978.0
20260508000812 86 0 0.0 0.0 0.00 0.00 0.00 84 978.0
20260508000250 86 0 0.0 0.0 0.00 0.00 0.00 83 978.0
20260507235724 85 0 0.0 0.0 0.00 0.00 0.00 85 978.0
20260507235200 85 0 0.0 0.0 0.00 0.00 0.00 86 978.0
20260507234636 84 0 0.0 0.0 0.00 0.00 0.00 89 978.0
20260507234112 84 0 0.0 0.0 0.00 0.00 0.00 88 977.0
20260507233551 84 0 0.0 0.0 0.00 0.00 0.00 87 977.0
20260507233023 84 0 0.0 0.0 0.00 0.00 0.00 87 977.0
20260507232457 84 0 0.0 0.0 0.00 0.00 0.00 88 977.0
20260507231933 83 0 0.0 0.0 0.00 0.00 0.00 89 977.0
20260507231411 83 0 0.0 0.0 0.00 0.00 0.00 88 977.0
20260507230845 84 0 0.0 0.0 0.00 0.00 0.00 88 977.0
20260507230321 84 0 0.0 0.0 0.00 0.00 0.00 89 977.0
20260507225754 83 0 0.0 0.0 0.00 0.00 0.00 91 977.0
20260507225229 83 0 0.0 0.0 0.00 0.00 0.00 89 977.0
20260507224703 83 0 0.0 0.0 0.00 0.00 0.00 92 977.0
20260507224136 83 0 0.0 0.0 0.00 0.00 0.00 91 977.0
20260507223613 83 0 0.0 0.0 0.00 0.00 0.00 89 977.0
20260507223046 83 0 0.0 0.0 0.00 0.00 0.00 90 977.0
20260507222521 83 0 0.0 0.0 0.00 0.00 0.00 90 977.0
20260507221956 83 0 0.0 0.0 0.00 0.00 0.00 90 977.0
20260507221431 82 0 0.0 0.0 0.00 0.00 0.00 91 977.0
20260507220907 83 0 0.0 0.0 0.00 0.00 0.00 92 977.0
20260507220340 83 0 0.0 0.0 0.00 0.00 0.00 88 977.0
20260507215814 83 0 0.0 0.0 0.00 0.00 0.00 90 977.0
20260507215249 83 0 0.0 0.0 0.00 0.00 0.00 90 977.0
20260507214726 84 0 0.0 0.0 0.00 0.00 0.00 86 977.0
20260507214158 84 0 0.0 0.0 0.00 0.00 0.00 86 977.0
20260507213634 0 0 0.0 0.0 0.00 0.00 0.00 85 977.0
20260507213109 85 0 0.0 0.0 0.00 0.00 0.00 83 976.0
20260507212544 84 0 0.0 0.0 0.00 0.00 0.00 85 976.0
20260507212022 85 0 0.0 0.0 0.00 0.00 0.00 84 976.0
20260507211454 85 0 0.0 0.0 0.00 0.00 0.00 84 976.0
20260507210936 85 0 0.0 0.0 0.00 0.00 0.00 83 976.0
20260507210931 85 0 0.0 0.0 0.00 0.00 0.00 83 976.0
20260507210407 84 0 0.0 0.0 0.00 0.00 0.00 84 976.0
20260507205845 85 0 0.0 0.0 0.00 0.00 0.00 83 976.0
20260507205318 84 0 0.0 0.0 0.00 0.00 0.00 83 976.0
20260507204753 84 0 0.0 0.0 0.00 0.00 0.00 84 976.0
20260507204229 85 0 0.0 0.0 0.00 0.00 0.00 82 976.0
20260507203713 84 0 0.0 0.0 0.00 0.00 0.00 84 976.0
20260507203703 84 0 0.0 0.0 0.00 0.00 0.00 84 976.0
20260507203139 85 0 0.0 0.0 0.00 0.00 0.00 82 976.0
20260507202613 85 0 0.0 0.0 0.00 0.00 0.00 83 976.0
20260507202054 84 0 0.0 0.0 0.00 0.00 0.00 84 976.0
20260507202047 84 0 0.0 0.0 0.00 0.00 0.00 84 976.0
20260507201526 84 0 0.0 0.0 0.00 0.00 0.00 86 977.0
20260507200959 84 0 0.0 0.0 0.00 0.00 0.00 84 977.0
20260507200435 84 0 0.0 0.0 0.00 0.00 0.00 84 977.0
20260507195910 84 0 0.0 0.0 0.00 0.00 0.00 84 977.0
20260507195908 84 0 0.0 0.0 0.00 0.00 0.00
20260507195344 83 0 0.0 0.0 0.00 0.00 0.00 90 977.0
20260507194820 83 0 0.0 0.0 0.00 0.00 0.00 87 976.0
20260507194302 84 0 0.0 0.0 0.00 0.00 0.00 84 977.0
20260507194256 84 0 0.0 0.0 0.00 0.00 0.00 84 977.0
20260507193733 84 0 0.0 0.0 0.00 0.00 0.00 85 977.0
20260507193210 84 0 0.0 0.0 0.00 0.00 0.00 83 977.0
20260507192656 84 0 0.0 0.0 0.00 0.00 0.00 85 977.0
20260507192645 84 0 0.0 0.0 0.00 0.00 0.00 85 977.0
20260507192119 83 0 0.0 0.0 0.00 0.00 0.00 86 977.0
20260507191556 83 0 0.0 0.0 0.00 0.00 0.00 87 977.0
20260507191029 84 0 0.0 0.0 0.00 0.00 0.00 83 977.0
20260507190505 84 0 0.0 0.0 0.00 0.00 0.00 83 977.0
20260507185941 85 0 0.0 0.0 0.00 0.00 0.00 82 977.0
20260507185415 84 0 0.0 0.0 0.00 0.00 0.00 83 977.0
20260507184854 85 0 0.0 0.0 0.00 0.00 0.00 82 977.0
20260507184852 85 0 0.0 0.0 0.00 0.00 0.00 82 977.0
20260507184328 85 0 0.0 0.0 0.00 0.00 0.00 83 977.0
20260507183806 85 0 0.0 0.0 0.00 0.00 0.00 83 977.0
20260507183240 85 0 0.0 0.0 0.00 0.00 0.00 82 977.0
20260507182718 84 0 0.0 0.0 0.00 0.00 0.00 85 977.0
20260507182152 84 0 0.0 0.0 0.00 0.00 0.00 84 977.0
20260507181628 84 0 0.0 0.0 0.00 0.00 0.00 82 977.0
20260507181103 85 0 0.0 0.0 0.00 0.00 0.00 82 977.0
20260507180539 84 0 0.0 0.0 0.00 0.00 0.00 85 977.0
20260507180021 85 0 0.0 0.0 0.00 0.00 0.00 81 977.0
20260507180013 85 0 0.0 0.0 0.00 0.00 0.00 81 977.0
20260507175448 85 0 0.0 0.0 0.00 0.00 0.00 80 978.0
20260507174924 85 0 0.0 0.0 0.00 0.00 0.00 82 977.0
20260507174357 83 0 0.0 0.0 0.00 0.00 0.00 85 977.0
20260507173834 84 0 0.0 0.0 0.00 0.00 0.00 84 977.0
20260507173311 84 0 0.0 0.0 0.00 0.00 0.00 83 977.0
20260507172748 84 0 0.0 0.0 0.00 0.00 0.00 81 977.0
20260507172256 84 0 0.0 0.0 0.00 0.00 0.00 82 977.0
20260507172224 84 0 0.0 0.0 0.00 0.00 0.00 82 977.0
20260507171703 84 0 0.0 0.0 0.00 0.00 0.00 82 978.0
20260507171139 85 0 0.0 0.0 0.00 0.00 0.00 80 977.0
20260507171137 85 0 0.0 0.0 0.00 0.00 0.00 80 977.0
20260507170613 85 0 0.0 0.0 0.00 0.00 0.00 80 978.0
20260507170049 84 0 0.0 0.0 0.00 0.00 0.00 83 978.0
20260507165527 85 0 0.0 0.0 0.00 0.00 0.00 80 978.0
20260507165001 85 0 0.0 0.0 0.00 0.00 0.00 80 978.0
20260507164438 85 0 0.0 0.0 0.00 0.00 0.00 80 978.0
20260507163915 85 0 0.0 0.0 0.00 0.00 0.00 81 978.0
20260507163350 86 0 0.0 0.0 0.00 0.00 0.00 78 978.0
20260507162826 86 0 0.0 0.0 0.00 0.00 0.00 80 978.0
20260507162306 85 0 0.0 0.0 0.00 0.00 0.00 82 978.0
20260507161740 85 0 0.0 0.0 0.00 0.00 0.00 83 978.0
20260507161218 84 0 0.0 0.0 0.00 0.00 0.00 86 978.0
20260507160656 84 0 0.0 0.0 0.00 0.00 0.00 84 978.0
20260507160132 85 0 0.0 0.0 0.00 0.00 0.00 84 978.0
20260507155609 85 0 0.0 0.0 0.00 0.00 0.00 84 978.0
20260507155048 85 0 0.0 0.0 0.00 0.00 0.00 86 978.0
20260507154524 86 0 0.0 0.0 0.00 0.00 0.00 85 978.0
20260507154002 86 0 0.0 0.0 0.00 0.00 0.00 86 978.0
20260507153435 86 0 0.0 0.0 0.00 0.00 0.00 88 979.0
20260507152912 86 0 0.0 0.0 0.00 0.00 0.00 87 979.0
20260507152348 85 0 0.0 0.0 0.00 0.00 0.00 88 979.0
20260507151826 85 0 0.0 0.0 0.00 0.00 0.00 90 979.0
20260507151302 84 0 0.0 0.0 0.00 0.00 0.00 96 979.0
20260507150739 85 0 0.0 0.0 0.00 0.00 0.00 89 979.0
20260507150215 85 0 0.0 0.0 0.00 0.00 0.00 979.0
20260507145653 84 0 0.0 0.0 0.00 0.00 0.00 96 979.0
20260507145129 84 0 0.0 0.0 0.00 0.00 0.00 97 979.0
20260507144605 83 0 0.0 0.0 0.00 0.00 0.00 98 978.0
20260507144041 84 0 0.0 0.0 0.00 0.00 0.00 97 978.0
20260507143518 84 0 0.0 0.0 0.00 0.00 0.00 96 978.0
20260507142953 84 0 0.0 0.0 0.00 0.00 0.00 96 978.0
20260507142430 84 0 0.0 0.0 0.00 0.00 0.00 95 978.0
20260507141906 85 0 0.0 0.0 0.00 0.00 0.00 92 978.0
20260507141341 84 0 0.0 0.0 0.00 0.00 0.00 92 977.0
20260507140818 85 0 0.0 0.0 0.00 0.00 0.00 91 977.0
20260507140254 85 0 0.0 0.0 0.00 0.00 0.00 89 977.0
20260507135730 85 0 0.0 0.0 0.00 0.00 0.00 88 977.0
20260507135207 86 0 0.0 0.0 0.00 0.00 0.00 85 977.0
20260507134643 85 0 0.0 0.0 0.00 0.00 0.00 86 977.0
20260507134121 86 0 0.0 0.0 0.00 0.00 0.00 84 977.0
20260507133608 85 0 0.0 0.0 0.00 0.00 0.00 86 977.0
20260507133558 85 0 0.0 0.0 0.00 0.00 0.00 86 977.0
20260507133046 0 0 0.0 0.0 0.00 0.00 0.00 85 976.0
20260507133037 85 0 0.0 0.0 0.00 0.00 0.00 85 976.0
20260507132512 86 0 0.0 0.0 0.00 0.00 0.00 85 976.0
20260507131949 86 0 0.0 0.0 0.00 0.00 0.00 87 976.0
20260507131602 85 0 0.0 0.0 0.00 0.00 0.00 89 976.0
20260507131424 85 0 0.0 0.0 0.00 0.00 0.00 89 976.0
20260507130900 85 0 0.0 0.0 0.00 0.00 0.00 89 976.0
20260507130336 86 0 0.0 0.0 0.00 0.00 0.00 85 976.0
20260507125812 86 0 0.0 0.0 0.00 0.00 0.00 85
20260507125249 86 0 0.0 0.0 0.00 0.00 0.00 86 976.0
20260507124726 86 0 0.0 0.0 0.00 0.00 0.00 85 976.0
20260507124202 87 0 0.0 0.0 0.00 0.00 0.00 83 976.0
20260507123638 85 0 0.0 0.0 0.00 0.00 0.00 88 976.0
20260507123116 85 0 0.0 0.0 0.00 0.00 0.00 87 975.0
20260507122552 86 0 0.0 0.0 0.00 0.00 0.00 85 975.0
20260507122027 86 0 0.0 0.0 0.00 0.00 0.00 86 976.0
20260507121504 86 0 0.0 0.0 0.00 0.00 0.00 86 976.0
20260507120944 86 0 0.0 0.0 0.00 0.00 0.00 83 976.0
20260507120418 86 0 0.0 0.0 0.00 0.00 0.00 84 976.0
20260507115854 86 0 0.0 0.0 0.00 0.00 0.00 86 976.0
20260507115339 85 0 0.0 0.0 0.00 0.00 0.00 88
20260507115330 85 0 0.0 0.0 0.00 0.00 0.00 88 976.0
20260507114807 85 0 0.0 0.0 0.00 0.00 0.00 88 976.0
20260507114242 86 0 0.0 0.0 0.00 0.00 0.00 87 976.0
20260507113719 85 0 0.0 0.0 0.00 0.00 0.00 87 975.0
20260507113153 86 0 0.0 0.0 0.00 0.00 0.00 86 975.0
20260507112628 85 0 0.0 0.0 0.00 0.00 0.00 87 975.0
20260507112106 86 0 0.0 0.0 0.00 0.00 0.00 86 975.0
20260507111543 86 0 0.0 0.0 0.00 0.00 0.00 83 975.0
20260507111020 87 0 0.0 0.0 0.00 0.00 0.00 80 975.0
20260507110456 87 0 0.0 0.0 0.00 0.00 0.00 78 975.0
20260507105931 87 0 0.0 0.0 0.00 0.00 0.00 80 975.0
20260507105408 86 0 0.0 0.0 0.00 0.00 0.00 86 975.0
20260507104844 86 0 0.0 0.0 0.00 0.00 0.00 82 975.0
20260507104320 86 0 0.0 0.0 0.00 0.00 0.00 81 975.0
20260507103756 86 0 0.0 0.0 0.00 0.00 0.00 82 975.0
20260507103232 86 0 0.0 0.0 0.00 0.00 0.00 84 975.0
20260507102709 86 0 0.0 0.0 0.00 0.00 0.00 80 975.0
20260507102145 86 0 0.0 0.0 0.00 0.00 0.00 80 975.0
20260507101623 86 0 0.0 0.0 0.00 0.00 0.00 80 975.0
20260507101100 86 0 0.0 0.0 0.00 0.00 0.00 82 975.0
20260507100538 86 0 0.0 0.0 0.00 0.00 0.00 82 975.0
20260507100015 86 0 0.0 0.0 0.00 0.00 0.00 82 975.0
20260507095451 86 0 0.0 0.0 0.00 0.00 0.00 81 975.0
20260507094927 85 0 0.0 0.0 0.00 0.00 0.00 80 975.0
20260507094402 86 0 0.0 0.0 0.00 0.00 0.00 78 975.0
20260507093835 86 0 0.0 0.0 0.00 0.00 0.00 78 975.0
20260507093307 87 0 0.0 0.0 0.00 0.00 0.00 76 974.0
20260507092743 87 0 0.0 0.0 0.00 0.00 0.00 75 974.0
20260507092219 87 0 0.0 0.0 0.00 0.00 0.00 72 974.0
20260507091656 87 0 0.0 0.0 0.00 0.00 0.00 72 974.0
20260507091134 86 0 0.0 0.0 0.00 0.00 0.00 73 974.0
20260507090611 86 0 0.0 0.0 0.00 0.00 0.00 73 974.0
20260507090048 0 0 0.0 0.0 0.00 0.00 0.00 70 974.0
20260507085523 88 0 0.0 0.0 0.00 0.00 0.00 69 974.0
20260507085000 88 0 0.0 0.0 0.00 0.00 0.00 68 974.0
20260507084436 87 0 0.0 0.0 0.00 0.00 0.00 69 975.0
20260507083913 87 0 0.0 0.0 0.00 0.00 0.00 69 975.0
20260507083351 88 0 0.0 0.0 0.00 0.00 0.00 66 975.0
20260507082828 0 0 0.0 0.0 0.00 0.00 0.00 64 974.0
20260507082307 87 0 0.0 0.0 0.00 0.00 0.00 65 974.0
20260507081743 84 0 0.0 0.0 0.00 0.00 0.00 68 974.0
20260507081221 84 0 0.0 0.0 0.00 0.00 0.00 67 974.0
20260507080659 88 0 0.0 0.0 0.00 0.00 0.00 64 974.0
20260507080136 92 0 0.0 0.0 0.00 0.00 0.00 55 974.0
20260507075613 95 0 0.0 0.0 0.00 0.00 0.00 53 974.0